User: anonymous   Login
Location: Syracuse
(43.0480°N, 76.1480°W)
Time: 22:39:44
(UTC-04:00)
Language:

Cosmos 1140 Rocket - Orbit

View from above orbital plane
View from above orbital plane
View from above satellite
View from above satellite

Ground track
Ground track

The orbit data is extracted from the following two-line orbital elements,

1 11574U 79089B   18173.59981886 +.00000027 +00000-0 +16514-4 0  9995
2 11574 074.0701 255.3013 0014916 063.5124 296.7559 14.40680422030300
Epoch (UTC): 22 June 2018 14:23:44
Eccentricity: 0.0014916
inclination: 74.0701°
perigee height: 745 km
apogee height: 767 km
right ascension of ascending node: 255.3013°
argument of perigee: 63.5124°
revolutions per day: 14.40680422
mean anomaly at epoch: 296.7559°
orbit number at epoch: 3030

The dashed part of the orbit path shows where the satellite is in the earth's shadow,  

DLR